Flag for Germany Weather past 2 weeks in Landshut, Bavaria, Germany

Now
38 °F

Overcast.


Feels Like: 33 °F
Forecast: 35 / 43 °F
Wind: 6 mph from West

Location: Muenchen Flughafen

Current Time: Dec 21, 2014 at 10:43:05 PM

Latest Report: Dec 21, 2014 at 10:00 PM


Visibility: 38 mi

Pressure: 30.47 "Hg

Humidity: 78%

Dew point: 32 °F

Location of LandshutLocation

Historic Weather in Landshut — Graph

°F

Landshut temperature yesterday

Maximum temperature yesterday: 48 °F (at 12:00 AM)
Minimum temperature yesterday: 36 °F (at 10:00 PM)
Average temperature yesterday: 42 °F

Past Weeks' High & Low Weather Summary

 TemperatureHumidityPressure
High56 °F (Dec 19, 2:00 PM)100% (Dec 7, 4:00 AM)30.54 "Hg (Dec 7, 4:00 AM)
Low25 °F (Dec 9, 9:00 PM)50% (Dec 14, 1:00 PM)29.82 "Hg (Dec 12, 9:00 PM)
Average41 °F82%30.12 "Hg
* Reported Dec 6 9:00 PM — Dec 21 9:00 PM, Landshut, Weather by CustomWeather, © 2014

Note: Actual official high and low records may vary slightly from our data, if they occured in-between our weather recording intervals... More about our weather records

Advertising

Landshut weather history for previous 24 hours

 ConditionsComfort  
Time TempWeatherWind HumidityBarometerVisibility
9:00 PM
Dec 21
38 °FOvercast.5 mph79%30.49 "Hg37 mi
8:00 PM38 °FOvercast.6 mph77%30.49 "Hg37 mi
7:00 PM38 °FOvercast.6 mph76%30.49 "Hg37 mi
6:00 PM38 °FOvercast.5 mph76%30.50 "Hg43 mi
5:00 PM39 °FOvercast.5 mph75%30.50 "Hg43 mi
4:00 PM41 °FOvercast.3 mph72%30.49 "Hg43 mi
3:00 PM42 °FOvercast.6 mph68%30.49 "Hg43 mi
2:00 PM42 °FOvercast.7 mph68%30.49 "Hg43 mi
1:00 PM42 °FPartly sunny.7 mph72%30.51 "Hg37 mi
12:00 PM42 °FPartly sunny.9 mph76%30.52 "Hg31 mi
11:00 AM40 °FOvercast.9 mph80%30.54 "Hg31 mi
10:00 AM39 °FOvercast.7 mph84%30.54 "Hg31 mi
9:00 AM38 °FOvercast.6 mph86%30.54 "Hg28 mi
8:00 AM37 °FOvercast.8 mph89%30.53 "Hg25 mi
7:00 AM36 °FOvercast.7 mph93%30.52 "Hg22 mi
6:00 AM36 °FLow clouds.7 mph92%30.50 "Hg19 mi
5:00 AM35 °FSnow showers. Low clouds.7 mph95%30.50 "Hg2 mi
4:00 AM36 °FOvercast.6 mph92%30.45 "Hg16 mi
3:00 AM36 °FLight mixture of precip. Low clouds.7 mph94%30.43 "Hg7 mi
2:00 AM39 °FSprinkles. Overcast.13 mph85%30.39 "Hg19 mi
1:00 AM39 °FSprinkles. Overcast.13 mph80%30.36 "Hg19 mi
12:00 AM38 °FOvercast.12 mph85%30.35 "Hg19 mi
11:00 PM
Dec 20
37 °FOvercast.12 mph89%30.34 "Hg16 mi
10:00 PM36 °FLight mixture of precip. Overcast.10 mph93%30.34 "Hg3 mi
Weather by CustomWeather, © 2014

See weather overviewHow to use our weather pages